Weather in Mulino

Russia / Nizhny Novgorod Oblast'     56°17′19″N   42°55′16″E
temp.,
°C
wind,
m/s
gust,
m/s
humid.,
%
clouds,
%
prec.,
mm/h
press.,
hPa
HPBL,
m
8 may, sat
sat800:00+5se22796 0.0 101623
03:00+4sse34835 0.0 101660
06:00+6se378010 0.0 1016191
09:00+12sse586088 0.0 1015706
12:00+14sse6849100 0.0 10131635
15:00+14se6952100 0.0 10111474
18:00+13sse51062100 0.0 1009940
21:00+10sse51379100 0.6 1007640
9 may, sun
sun900:00+10sse61489100 1.1 1005825
03:00+11s51293100 1.6 1004628
06:00+11s4994100 0.1 1005560
09:00+11sw4887100 0.6 1006746
12:00+9w6882100 0.2 1010743
15:00+6nw6884100 0.2 1013751
18:00+7nnw41085100 0.0 1016835
21:00+7nw4982100 0.1 1019793
10 may, mon
mon1000:00+5nw4119095 0.0 1021357
03:00+3nw388968 0.0 1024175
06:00+5nnw310720 0.0 1027268
09:00+11n46490 0.0 10281184
12:00+14n35352 0.0 10281593
15:00+15n34345 0.0 10281755
18:00+14nne24505 0.0 1029247
21:00+7nne226461 0.0 103111
11 may, tue
tue1100:00+7nne22625 0.0 103112
03:00+5ne22675 0.0 103211
06:00+8e12648 0.0 103263
09:00+14ese234712 0.0 1033703
12:00+17e23425 0.0 10321099
15:00+19ene33435 0.0 10311235
18:00+17ene24595 0.0 1031313
21:00+11e22795 0.0 103114
12 may, wed
wed1200:00+10sse118281 0.0 103110
03:00+9e228178 0.0 103112
06:00+11e237824 0.0 1031109
09:00+17e35555 0.0 1031703
12:00+20ese46475 0.0 10301124
15:00+21ese45461 0.0 10291172
18:00+19se36610 0.0 1028468
21:00+14ese22815 0.0 102823